Home > Weather > Halle > Past weeks

Flag for Germany Past Weather in Halle, Saxony-Anhalt, Germany — Yesterday and Last 2 Weeks

Now
79 °F

Passing clouds.


Feels Like: 80 °F
Forecast: 62 / 78 °F
Wind: 13 mph from West

Location: Leipzig-Schkeuditz

Current Time: Jul 29, 2016 at 4:07:58 PM

Latest Report: Jul 29, 2016 at 3:20 PM


Visibility: N/A

Pressure: 29.89 "Hg

Humidity: 48%

Dew Point: 57 °F

Location of HalleLocation

Past Weather in Halle — Graph

°F

Halle Temperature Yesterday

Maximum temperature yesterday: 79 °F (at 5:20 PM)
Minimum temperature yesterday: 61 °F (at 6:20 AM)
Average temperature yesterday: 70 °F

High & Low Weather Summary for the Past Weeks

 TemperatureHumidityPressure
High88 °F (Jul 22, 3:20 PM)100% (Jul 17, 7:50 AM)30.27 "Hg (Jul 17, 7:50 AM)
Low48 °F (Jul 16, 5:50 AM)25% (Jul 23, 1:50 PM)29.89 "Hg (Jul 21, 4:50 AM)
Average70 °F67%30.07 "Hg
* Reported Jul 14 3:20 PM — Jul 29 3:20 PM, Halle, Weather by CustomWeather, © 2016

Note: Actual official high and low records may vary slightly from our data, if they occured in-between our weather recording intervals... More about our weather records

Advertising

Halle Weather History for the Previous 24 Hours

Scroll right to see more
 ConditionsComfort  
Time TempWeatherWind HumidityBarometerVisibility
3:20 PM
Fri, Jul 29
79 °FPassing clouds.13 mph48%29.89 "HgN/A
2:20 PM75 °FScattered clouds.16 mph50%29.89 "HgN/A
1:50 PM77 °FScattered clouds.15 mph51%29.89 "HgN/A
1:20 PM75 °FScattered clouds.13 mph57%29.92 "HgN/A
12:50 PM75 °FScattered clouds.12 mph54%29.92 "HgN/A
12:20 PM75 °FScattered clouds.12 mph57%29.92 "HgN/A
11:50 AM73 °FScattered clouds.14 mph57%29.92 "HgN/A
11:20 AM73 °FScattered clouds.12 mph65%29.92 "HgN/A
10:50 AM72 °FScattered clouds.9 mph69%29.92 "HgN/A
10:20 AM72 °FScattered clouds.12 mph69%29.92 "HgN/A
9:50 AM70 °FScattered clouds.9 mph78%29.92 "HgN/A
9:20 AM70 °FBroken clouds.12 mph78%29.92 "HgN/A
8:50 AM68 °FScattered clouds.12 mph83%29.92 "HgN/A
8:20 AM66 °FScattered clouds.12 mph88%29.92 "HgN/A
7:50 AM66 °FSunny.10 mph83%29.92 "Hg10 mi
7:20 AM64 °FSunny.8 mph88%29.92 "Hg10 mi
6:50 AM63 °FSunny.8 mph94%29.92 "Hg10 mi
6:20 AM64 °FClear.13 mph88%29.92 "Hg10 mi
5:50 AM64 °FClear.10 mph88%29.92 "Hg10 mi
5:20 AM64 °FClear.10 mph88%29.92 "Hg10 mi
4:50 AM63 °FClear.8 mph94%29.92 "Hg10 mi
4:20 AM63 °FPassing clouds.6 mph94%29.92 "HgN/A
3:50 AM64 °FClear.8 mph94%29.92 "Hg10 mi
3:20 AM64 °FPassing clouds.7 mph94%29.92 "HgN/A
2:50 AM64 °FLight rain. Passing clouds.7 mph94%29.92 "HgN/A
2:20 AM64 °FSprinkles. Passing clouds.7 mph94%29.92 "HgN/A
1:50 AM64 °FScattered showers. Passing clouds.7 mph88%29.92 "HgN/A
1:20 AM64 °FScattered showers. Passing clouds.3 mph88%29.92 "HgN/A
12:50 AM66 °FPassing clouds.3 mph83%29.92 "HgN/A
12:20 AM64 °FClear.3 mph88%29.92 "Hg10 mi
11:50 PM
Thu, Jul 28
64 °FScattered showers. Clear.5 mph88%29.92 "HgN/A
11:20 PM64 °FScattered showers. Clear.2 mph94%29.95 "HgN/A
10:50 PM64 °FScattered showers. Partly cloudy.3 mph88%29.95 "HgN/A
10:20 PM64 °FSprinkles. Passing clouds.7 mph88%29.95 "HgN/A
9:50 PM64 °FThunderstorms. Partly sunny.14 mph88%29.95 "HgN/A
9:20 PM72 °FThunderstorms. Partly sunny.8 mph65%29.92 "HgN/A
8:50 PM72 °FScattered showers. Scattered clouds.7 mph65%29.92 "HgN/A
8:20 PM72 °FScattered showers. Scattered clouds.7 mph61%29.92 "HgN/A
7:50 PM75 °FScattered clouds.8 mph54%29.92 "HgN/A
7:20 PM77 °FScattered clouds.7 mph51%29.92 "HgN/A
6:50 PM77 °FPassing clouds.6 mph51%29.92 "HgN/A
6:20 PM77 °FPassing clouds.6 mph51%29.95 "HgN/A
5:50 PM79 °FPassing clouds.6 mph48%29.95 "HgN/A
5:20 PM79 °FScattered clouds.3 mph48%29.95 "HgN/A
4:50 PM77 °FBroken clouds.5 mph51%29.95 "HgN/A
4:20 PM77 °FBroken clouds.2 mph51%29.98 "HgN/A
Weather by CustomWeather, © 2016

See weather overviewHow to use our weather pages